Home > Weather > Taipei > Past weeks

Flag for Taiwan Weather for the Past 2 Weeks in Taipei, Taiwan

Now
72 °F

Passing clouds.


Feels Like: 76 °F
Forecast: 61 / 73 °F
Wind: 12 mph from West

Location: Sungshan / Taipei

Current Time: Feb 9, 2016 at 4:17:14 PM

Latest Report: Feb 9, 2016 at 3:00 PM


Visibility: N/A

Pressure: 30.09 "Hg

Humidity: 31%

Dew point: 39 °F

Location of TaipeiLocation

Historic Weather in Taipei — Graph

°F

Taipei Temperature Yesterday

Maximum temperature yesterday: 68 °F (at 2:00 PM)
Minimum temperature yesterday: 41 °F (at 4:00 AM)
Average temperature yesterday: 55 °F

High & Low Weather Summary for the Past Weeks

 TemperatureHumidityPressure
High75 °F (Jan 27, 1:00 PM)94% (Jan 29, 2:00 AM)30.48 "Hg (Jan 29, 2:00 AM)
Low41 °F (Feb 8, 4:00 AM)23% (Feb 8, 2:00 PM)30.01 "Hg (Jan 28, 2:30 PM)
Average59 °F71%30.22 "Hg
* Reported Jan 25 3:00 PM — Feb 9 3:00 PM, Taipei, Weather by CustomWeather, © 2016

Note: Actual official high and low records may vary slightly from our data, if they occured in-between our weather recording intervals... More about our weather records

Advertising

Taipei Weather History for the Previous 24 Hours

 ConditionsComfort  
Time TempWeatherWind HumidityBarometerVisibility
3:00 PM
Tue, Feb 9
72 °FPassing clouds.12 mph31%30.09 "HgN/A
2:30 PM73 °FPassing clouds.13 mph31%30.09 "HgN/A
2:00 PM73 °FPassing clouds.12 mph33%30.12 "HgN/A
1:30 PM73 °FPassing clouds.10 mph31%30.12 "HgN/A
1:00 PM73 °FPassing clouds.9 mph29%30.12 "HgN/A
12:30 PM72 °FPassing clouds.8 mph36%30.15 "HgN/A
11:30 AM70 °FPassing clouds.7 mph38%30.18 "HgN/A
11:00 AM66 °FSunny.6 mph43%30.18 "Hg10 mi
10:30 AM66 °FPassing clouds.6 mph46%30.21 "HgN/A
10:00 AM63 °FSunny.1 mph52%30.21 "Hg10 mi
9:30 AM59 °FSunny.1 mph59%30.21 "Hg10 mi
9:00 AM55 °FSunny.2 mph67%30.21 "Hg10 mi
8:30 AM54 °FSunny.2 mph67%30.21 "Hg10 mi
8:00 AM52 °FSunny.2 mph77%30.21 "Hg10 mi
7:30 AM48 °FSunny.5 mph82%30.21 "Hg10 mi
7:00 AM46 °FSunny.3 mph82%30.21 "Hg10 mi
6:30 AM46 °FClear.5 mph82%30.18 "Hg10 mi
6:00 AM46 °FClear.5 mph82%30.18 "Hg10 mi
5:00 AM46 °FClear.5 mph82%30.18 "Hg10 mi
4:00 AM45 °FClear.No wind87%30.18 "Hg10 mi
3:00 AM48 °FClear.3 mph76%30.18 "Hg10 mi
2:00 AM48 °FClear.5 mph76%30.21 "Hg10 mi
1:00 AM50 °FClear.3 mph71%30.21 "Hg10 mi
12:00 AM48 °FClear.2 mph76%30.21 "Hg10 mi
11:30 PM
Mon, Feb 8
52 °FClear.3 mph67%30.21 "Hg10 mi
11:00 PM50 °FClear.5 mph71%30.21 "Hg10 mi
10:30 PM50 °FClear.5 mph71%30.24 "Hg10 mi
10:00 PM52 °FClear.2 mph67%30.24 "Hg10 mi
9:30 PM52 °FClear.5 mph67%30.24 "Hg10 mi
9:00 PM52 °FClear.6 mph67%30.24 "Hg10 mi
8:30 PM52 °FClear.6 mph62%30.24 "Hg10 mi
8:00 PM54 °FClear.7 mph58%30.21 "Hg10 mi
7:30 PM54 °FClear.9 mph54%30.21 "Hg10 mi
7:00 PM57 °FClear.9 mph48%30.21 "Hg10 mi
6:30 PM59 °FClear.9 mph42%30.21 "Hg10 mi
6:00 PM57 °FClear.10 mph48%30.21 "Hg10 mi
5:30 PM59 °FSunny.12 mph45%30.21 "Hg10 mi
5:00 PM61 °FSunny.10 mph39%30.18 "Hg10 mi
4:30 PM63 °FPassing clouds.13 mph34%30.18 "HgN/A
4:00 PM64 °FSunny.13 mph32%30.18 "Hg10 mi
Weather by CustomWeather, © 2016

See weather overviewHow to use our weather pages